When you browse on this site, cookies collect data to enhance your experience and personalize the content and advertising you see.
Visit our Privacy Policy to learn more. By continuing to use the site, you agree to this use of cookies and data.

Hourly Weather Jalalabad

Today, 8 August, Saturday

Time Temperature Precipitation Wind Pressure Humidity
00:00 +37°C° 0.1 mm 3 mps 705 mmHg 47%
01:00 +37°C° 0.1 mm 2 mps 705 mmHg 49%
02:00 +36°C° 0.1 mm 2 mps 705 mmHg 51%
03:00 +35°C° 0.1 mm 1 mps 705 mmHg 54%
04:00 +34°C° 0.1 mm 1 mps 704 mmHg 56%
05:00 +34°C° 0.1 mm 1 mps 704 mmHg 58%
06:00 +34°C° 0.1 mm 1 mps 704 mmHg 57%
07:00 +35°C° 0.1 mm 2 mps 704 mmHg 56%
08:00 +36°C° 0.1 mm 2 mps 705 mmHg 55%
09:00 +37°C° 0.1 mm 2 mps 704 mmHg 51%
10:00 +38°C° 0.1 mm 2 mps 704 mmHg 48%
11:00 +39°C° 0.1 mm 2 mps 704 mmHg 44%
12:00 +40°C° 0 mm 3 mps 704 mmHg 41%
13:00 +42°C° 0 mm 3 mps 703 mmHg 37%
14:00 +43°C° 0 mm 3 mps 703 mmHg 34%
15:00 +43°C° 0 mm 3 mps 702 mmHg 33%
16:00 +43°C° 0 mm 3 mps 702 mmHg 32%
17:00 +43°C° 0 mm 4 mps 701 mmHg 31%
18:00 +42°C° 0 mm 4 mps 702 mmHg 34%
19:00 +41°C° 0 mm 4 mps 702 mmHg 38%
20:00 +40°C° 0 mm 4 mps 702 mmHg 41%
21:00 +40°C° 0 mm 4 mps 702 mmHg 44%
22:00 +38°C° 0 mm 4 mps 702 mmHg 47%
23:00 +37°C° 0 mm 4 mps 703 mmHg 50%

Tomorrow, 9 August, Sunday

Time Temperature Precipitation Wind Pressure Humidity
00:00 +37°C° 0 mm 3 mps 702 mmHg 51%
01:00 +37°C° 0 mm 2 mps 702 mmHg 52%
02:00 +36°C° 0 mm 2 mps 702 mmHg 54%
03:00 +36°C° 0 mm 2 mps 702 mmHg 55%
04:00 +35°C° 0 mm 1 mps 702 mmHg 56%
05:00 +35°C° 0 mm 1 mps 702 mmHg 57%
06:00 +36°C° 0.2 mm 2 mps 702 mmHg 57%
07:00 +36°C° 0.2 mm 2 mps 702 mmHg 57%
08:00 +36°C° 0.2 mm 3 mps 702 mmHg 56%
09:00 +36°C° 0.3 mm 3 mps 702 mmHg 54%
10:00 +37°C° 0.3 mm 3 mps 702 mmHg 52%
11:00 +38°C° 0.3 mm 3 mps 702 mmHg 50%
12:00 +38°C° 0.2 mm 4 mps 701 mmHg 48%
13:00 +40°C° 0.2 mm 4 mps 701 mmHg 47%
14:00 +40°C° 0.2 mm 4 mps 701 mmHg 45%
15:00 +40°C° 0 mm 4 mps 701 mmHg 45%
16:00 +40°C° 0 mm 4 mps 700 mmHg 44%
17:00 +40°C° 0 mm 4 mps 700 mmHg 43%
18:00 +40°C° 0 mm 4 mps 700 mmHg 45%
19:00 +38°C° 0 mm 3 mps 701 mmHg 48%
20:00 +37°C° 0 mm 3 mps 701 mmHg 50%
21:00 +37°C° 0.1 mm 3 mps 701 mmHg 52%
22:00 +37°C° 0.1 mm 2 mps 702 mmHg 54%
23:00 +36°C° 0.1 mm 2 mps 702 mmHg 56%

Day after tomorrow, 10 August, Monday

Time Temperature Precipitation Wind Pressure Humidity
00:00 +35°C° 0.3 mm 1 mps 702 mmHg 57%
01:00 +35°C° 0.3 mm 1 mps 702 mmHg 59%
02:00 +34°C° 0.3 mm 1 mps 701 mmHg 60%
03:00 +34°C° 0.3 mm 1 mps 701 mmHg 62%
04:00 +33°C° 0.3 mm 1 mps 701 mmHg 64%
05:00 +33°C° 0.3 mm 1 mps 701 mmHg 66%
06:00 +33°C° 0.1 mm 1 mps 701 mmHg 64%
07:00 +33°C° 0.1 mm 1 mps 701 mmHg 63%
08:00 +34°C° 0.1 mm 1 mps 702 mmHg 61%
09:00 +35°C° 0.2 mm 1 mps 702 mmHg 56%
10:00 +37°C° 0.2 mm 2 mps 702 mmHg 50%
11:00 +39°C° 0.2 mm 2 mps 702 mmHg 44%
12:00 +40°C° 0.1 mm 2 mps 702 mmHg 40%
13:00 +42°C° 0.1 mm 3 mps 701 mmHg 35%
14:00 +43°C° 0.1 mm 3 mps 701 mmHg 31%
15:00 +43°C° 0 mm 4 mps 701 mmHg 31%
16:00 +43°C° 0 mm 4 mps 701 mmHg 32%
17:00 +43°C° 0 mm 5 mps 701 mmHg 33%
18:00 +42°C° 0 mm 5 mps 701 mmHg 37%
19:00 +41°C° 0 mm 4 mps 701 mmHg 41%
20:00 +40°C° 0 mm 4 mps 702 mmHg 45%
21:00 +38°C° 0 mm 3 mps 702 mmHg 47%
22:00 +38°C° 0 mm 3 mps 702 mmHg 50%
23:00 +37°C° 0 mm 3 mps 702 mmHg 53%

11 August, Tuesday

Time Temperature Precipitation Wind Pressure Humidity
00:00 +37°C° 0.3 mm 2 mps 702 mmHg 55%
01:00 +36°C° 0.3 mm 2 mps 702 mmHg 56%
02:00 +36°C° 0.3 mm 2 mps 702 mmHg 58%
03:00 +35°C° 0.6 mm 2 mps 702 mmHg 60%
04:00 +33°C° 0.6 mm 1 mps 702 mmHg 63%
05:00 +32°C° 0.6 mm 1 mps 702 mmHg 65%
06:00 +33°C° 0.3 mm 1 mps 702 mmHg 64%
07:00 +33°C° 0.3 mm 1 mps 702 mmHg 63%
08:00 +34°C° 0.3 mm 2 mps 702 mmHg 62%
09:00 +35°C° 0 mm 2 mps 702 mmHg 57%
10:00 +36°C° 0 mm 2 mps 702 mmHg 51%
11:00 +38°C° 0 mm 2 mps 702 mmHg 46%
12:00 +39°C° 0 mm 2 mps 702 mmHg 40%
13:00 +40°C° 0 mm 3 mps 702 mmHg 35%
14:00 +42°C° 0 mm 3 mps 701 mmHg 30%
15:00 +42°C° 0 mm 3 mps 701 mmHg 30%
16:00 +42°C° 0 mm 4 mps 701 mmHg 30%
17:00 +43°C° 0 mm 4 mps 701 mmHg 30%
18:00 +42°C° 0 mm 4 mps 701 mmHg 35%
19:00 +40°C° 0 mm 3 mps 702 mmHg 40%
20:00 +39°C° 0 mm 3 mps 702 mmHg 45%
21:00 +38°C° 0 mm 3 mps 702 mmHg 48%
22:00 +37°C° 0 mm 3 mps 703 mmHg 51%
23:00 +37°C° 0 mm 3 mps 703 mmHg 54%

12 August, Wednesday

Time Temperature Precipitation Wind Pressure Humidity
00:00 +36°C° 0.1 mm 2 mps 703 mmHg 56%
01:00 +35°C° 0.1 mm 1 mps 703 mmHg 58%
02:00 +34°C° 0.1 mm 1 mps 703 mmHg 60%
03:00 +34°C° 0.2 mm 1 mps 703 mmHg 61%
04:00 +34°C° 0.2 mm 1 mps 702 mmHg 62%
05:00 +33°C° 0.2 mm 1 mps 702 mmHg 63%
06:00 +34°C° 0 mm 1 mps 703 mmHg 60%
07:00 +34°C° 0 mm 1 mps 703 mmHg 56%
08:00 +34°C° 0 mm 1 mps 703 mmHg 53%
09:00 +36°C° 0 mm 1 mps 703 mmHg 46%
10:00 +37°C° 0 mm 1 mps 703 mmHg 39%
11:00 +39°C° 0 mm 1 mps 703 mmHg 32%
12:00 +40°C° 0 mm 1 mps 703 mmHg 27%
13:00 +41°C° 0 mm 1 mps 702 mmHg 22%
14:00 +43°C° 0 mm 1 mps 702 mmHg 17%
15:00 +43°C° 0 mm 2 mps 702 mmHg 18%
16:00 +44°C° 0 mm 3 mps 702 mmHg 18%
17:00 +44°C° 0 mm 4 mps 701 mmHg 19%
18:00 +43°C° 0 mm 4 mps 702 mmHg 26%
19:00 +41°C° 0 mm 4 mps 702 mmHg 34%
20:00 +39°C° 0 mm 3 mps 703 mmHg 41%
21:00 +38°C° 0 mm 3 mps 703 mmHg 45%
22:00 +38°C° 0 mm 3 mps 703 mmHg 49%
23:00 +37°C° 0 mm 2 mps 704 mmHg 53%

13 August, Thursday

Time Temperature Precipitation Wind Pressure Humidity
00:00 +36°C° 0 mm 2 mps 703 mmHg 55%
01:00 +35°C° 0 mm 1 mps 703 mmHg 57%
02:00 +34°C° 0 mm 1 mps 703 mmHg 59%
03:00 +34°C° 0 mm 1 mps 703 mmHg 58%
04:00 +34°C° 0 mm 1 mps 703 mmHg 57%
05:00 +33°C° 0 mm 1 mps 703 mmHg 56%
06:00 +34°C° 0 mm 1 mps 703 mmHg 51%
07:00 +34°C° 0 mm 1 mps 703 mmHg 45%
08:00 +35°C° 0 mm 1 mps 703 mmHg 40%
09:00 +36°C° 0 mm 1 mps 703 mmHg 31%
10:00 +39°C° 0 mm 2 mps 703 mmHg 23%
11:00 +40°C° 0 mm 2 mps 703 mmHg 14%
12:00 +41°C° 0 mm 2 mps 703 mmHg 12%
13:00 +43°C° 0 mm 2 mps 702 mmHg 11%
14:00 +45°C° 0 mm 2 mps 702 mmHg 9%
15:00 +45°C° 0 mm 3 mps 702 mmHg 9%
16:00 +46°C° 0 mm 3 mps 702 mmHg 8%
17:00 +46°C° 0 mm 3 mps 701 mmHg 8%
18:00 +44°C° 0 mm 4 mps 702 mmHg 16%
19:00 +42°C° 0 mm 4 mps 702 mmHg 24%
20:00 +40°C° 0 mm 4 mps 702 mmHg 32%
21:00 +38°C° 0 mm 3 mps 702 mmHg 37%
22:00 +38°C° 0 mm 2 mps 703 mmHg 42%
23:00 +37°C° 0 mm 2 mps 703 mmHg 47%
Show more